DW2481 Weather Reports


time (UTC)temp
F
wind
direction
speed
knots
gust
knots
rain 1hr
in
rain 24hr
in
rain mn
in
humidity
%
barometer
mb
20260510220538 84 0 0.0 2.6 0.00 0.00 0.00 72 1015.2
20260510220049 84 0 0.0 3.5 0.00 0.00 0.00 72 1015.3
20260510215538 84 75 0.0 4.3 0.00 0.00 0.00 71 1015.3
20260510215039 85 44 0.0 7.0 0.00 0.00 0.00 71 1015.3
20260510214602 85 73 1.7 7.0 0.00 0.00 0.00 71 1015.2
20260510214034 85 51 0.9 7.0 0.00 0.00 0.00 71 1015.2
20260510213535 85 75 2.6 7.0 0.00 0.00 0.00 71 1015.2
20260510213044 86 61 2.6 7.0 0.00 0.00 0.00 69 1015.2
20260510212533 86 0 0.9 4.3 0.00 0.00 0.00 69 1015.3
20260510212038 87 65 2.6 4.3 0.00 0.00 0.00 67 1015.3
20260510211542 87 0 0.0 0.0 0.00 0.00 0.00 66 1015.3
20260510211038 87 0 0.0 3.5 0.00 0.00 0.00 66 1015.3
20260510210537 87 0 0.0 3.5 0.00 0.00 0.00 66 1015.2
20260510210049 87 82 0.0 2.6 0.00 0.00 0.00 65 1015.1
20260510205535 87 78 0.0 2.6 0.00 0.00 0.00 66 1015.1
20260510205039 87 0 0.0 3.5 0.00 0.00 0.00 65 1015.2
20260510204555 87 0 0.9 3.5 0.00 0.00 0.00 65 1015.2
20260510204038 88 341 1.7 6.1 0.00 0.00 0.00 64 1015.2
20260510203535 88 295 1.7 6.1 0.00 0.00 0.00 61 1015.3
20260510203038 88 321 0.9 5.2 0.00 0.00 0.00 60 1015.2
20260510202535 88 302 0.9 5.2 0.00 0.00 0.00 63 1015.3
20260510202036 87 224 2.6 5.2 0.00 0.00 0.00 63 1015.2
20260510201543 87 0 0.0 3.5 0.00 0.00 0.00 63 1015.3
20260510201034 87 310 0.0 3.5 0.00 0.00 0.00 64 1015.2
20260510200538 86 0 0.9 4.3 0.00 0.00 0.00 66 1015.2
20260510200041 86 0 0.0 7.0 0.00 0.00 0.00 68 1015.1
20260510195535 86 344 0.0 7.0 0.00 0.00 0.00 69 1015.1
20260510195035 85 237 1.7 7.0 0.00 0.00 0.00 70 1015.1
20260510194542 85 0 0.9 7.8 0.00 0.00 0.00 71 1015.0
20260510194037 85 0 1.7 7.8 0.00 0.00 0.00 71 1015.1
20260510193538 85 300 1.7 7.8 0.00 0.00 0.00 71 1015.2
20260510193039 85 0 2.6 7.8 0.00 0.00 0.00 71 1015.1
20260510192534 86 266 1.7 10.4 0.00 0.00 0.00 70 1015.1
20260510192037 86 298 2.6 14.8 0.00 0.00 0.00 69 1015.1
20260510191547 88 270 4.3 14.8 0.00 0.00 0.00 67 1015.4
20260510191033 89 0 0.0 0.0 0.00 0.00 0.00 63 1015.1
20260510190534 89 0 0.0 0.0 0.00 0.00 0.00 60 1015.0
20260510190047 89 0 0.0 0.0 0.00 0.00 0.00 59 1015.0
20260510185538 90 0 0.0 0.0 0.00 0.00 0.00 60 1015.2
20260510185037 90 0 0.0 0.0 0.00 0.00 0.00 59 1015.3
20260510184549 90 0 0.0 0.0 0.00 0.00 0.00 58 1015.3
20260510184034 90 0 0.0 0.0 0.00 0.00 0.00 58 1015.2
20260510183538 91 0 0.0 0.0 0.00 0.00 0.00 57 1015.2
20260510183043 91 0 0.0 0.0 0.00 0.00 0.00 57 1015.2
20260510182534 91 0 0.0 0.0 0.00 0.00 0.00 56 1015.3
20260510182037 92 0 0.0 0.0 0.00 0.00 0.00 57 1015.2
20260510181541 92 0 0.0 0.0 0.00 0.00 0.00 56 1015.4
20260510181035 92 0 0.0 0.0 0.00 0.00 0.00 54 1015.2
20260510180535 93 0 0.0 0.0 0.00 0.00 0.00 54 1015.3
20260510180045 93 0 0.0 0.0 0.00 0.00 0.00 55 1015.4
20260510175536 93 0 0.0 0.0 0.00 0.00 0.00 54 1015.4
20260510175034 93 0 0.0 0.0 0.00 0.00 0.00 54 1015.4
20260510174549 93 0 0.0 0.0 0.00 0.00 0.00 57 1015.5
20260510174038 93 0 0.0 0.0 0.00 0.00 0.00 57 1015.6
20260510173538 93 0 0.0 0.0 0.00 0.00 0.00 55 1015.7
20260510173047 92 0 0.0 0.0 0.00 0.00 0.00 57 1015.9
20260510172537 92 0 0.0 0.0 0.00 0.00 0.00 56 1015.9
20260510172039 92 0 0.0 0.0 0.00 0.00 0.00 55 1016.1
20260510171542 91 0 0.0 0.0 0.00 0.00 0.00 60 1016.1
20260510171034 91 0 0.0 0.0 0.00 0.00 0.00 57 1016.2
20260510170534 91 0 0.0 0.0 0.00 0.00 0.00 58 1016.2
20260510170055 90 0 0.0 0.0 0.00 0.00 0.00 59 1016.3
20260510165537 90 0 0.0 0.0 0.00 0.00 0.00 61 1016.4
20260510165040 90 0 0.0 0.0 0.00 0.00 0.00 63 1016.5
20260510164551 89 0 0.0 0.0 0.00 0.00 0.00 64 1016.5
20260510164034 89 0 0.0 0.0 0.00 0.00 0.00 64 1016.6
20260510163534 89 0 0.0 0.0 0.00 0.00 0.00 62 1016.7
20260510163043 90 0 0.0 0.0 0.00 0.00 0.00 62 1016.6
20260510162537 90 0 0.0 0.0 0.00 0.00 0.00 62 1016.6
20260510162036 89 0 0.0 0.0 0.00 0.00 0.00 62 1016.7
20260510161541 89 0 0.0 0.0 0.00 0.00 0.00 61 1016.7
20260510161038 89 0 0.0 0.0 0.00 0.00 0.00 63 1016.6
20260510160536 88 0 0.0 0.0 0.00 0.00 0.00 63 1016.7
20260510160052 88 0 0.0 0.0 0.00 0.00 0.00 64 1016.9
20260510155537 88 0 0.0 0.0 0.00 0.00 0.00 64 1016.8
20260510155040 88 0 0.0 0.0 0.00 0.00 0.00 64 1016.7
20260510154552 88 0 0.0 0.0 0.00 0.00 0.00 66 1016.7
20260510154035 87 0 0.0 0.0 0.00 0.00 0.00 67 1016.8
20260510153534 87 0 0.0 0.0 0.00 0.00 0.00 66 1016.7
20260510153049 87 0 0.0 0.0 0.00 0.00 0.00 66 1016.8
20260510152534 87 0 0.0 0.0 0.00 0.00 0.00 66 1016.6
20260510152037 87 0 0.0 0.0 0.00 0.00 0.00 68 1016.7
20260510151543 86 0 0.0 0.0 0.00 0.00 0.00 68 1016.7
20260510151037 86 0 0.0 0.0 0.00 0.00 0.00 69 1016.6
20260510150535 85 0 0.0 0.0 0.00 0.00 0.00 69 1016.5
20260510150045 85 0 0.0 0.0 0.00 0.00 0.00 70 1016.5
20260510145540 85 0 0.0 0.0 0.00 0.00 0.00 71 1016.5
20260510145036 85 0 0.0 0.0 0.00 0.00 0.00 71 1016.6
20260510144540 84 0 0.0 0.0 0.00 0.00 0.00 72 1016.5
20260510144037 84 0 0.0 0.0 0.00 0.00 0.00 74 1016.5
20260510143538 83 0 0.0 0.0 0.00 0.00 0.00 75 1016.3
20260510143048 83 0 0.0 0.0 0.00 0.00 0.00 75 1016.4
20260510142535 82 0 0.0 0.0 0.00 0.00 0.00 76 1016.5
20260510142037 82 0 0.0 0.0 0.00 0.00 0.00 76 1016.5
20260510141545 82 0 0.0 0.0 0.00 0.00 0.00 79 1016.6
20260510141034 81 0 0.0 0.0 0.00 0.00 0.00 80 1016.5
20260510140534 80 0 0.0 0.0 0.00 0.00 0.00 82 1016.5
20260510140053 80 0 0.0 0.0 0.00 0.00 0.00 82 1016.4
20260510135538 80 0 0.0 0.0 0.00 0.00 0.00 82 1016.5
20260510135035 79 0 0.0 0.0 0.00 0.00 0.00 84 1016.5
20260510134540 79 0 0.0 0.0 0.00 0.00 0.00 85 1016.3
20260510134037 78 0 0.0 0.0 0.00 0.00 0.00 86 1016.2
20260510133542 78 0 0.0 0.0 0.00 0.00 0.00 87 1016.2
20260510133041 77 0 0.0 0.0 0.00 0.00 0.00 89 1016.1
20260510132535 77 0 0.0 0.0 0.00 0.00 0.00 90 1016.1
20260510132038 77 0 0.0 0.0 0.00 0.00 0.00 91 1016.2
20260510131550 76 0 0.0 0.0 0.00 0.00 0.00 92 1016.0
20260510131034 76 0 0.0 0.0 0.00 0.00 0.00 92 1016.1
20260510130534 76 0 0.0 0.0 0.00 0.00 0.00 93 1016.0
20260510130049 76 0 0.0 0.0 0.00 0.00 0.00 93 1016.1
20260510125533 76 0 0.0 0.0 0.00 0.00 0.00 93 1016.0
20260510125035 75 0 0.0 0.0 0.00 0.00 0.00 93 1016.0
20260510124553 75 0 0.0 0.0 0.00 0.00 0.00 93 1015.9
20260510124034 75 0 0.0 0.0 0.00 0.00 0.00 93 1015.9
20260510123534 74 0 0.0 0.0 0.00 0.00 0.00 93 1015.9
20260510123049 74 0 0.0 0.0 0.00 0.00 0.00 93 1015.8
20260510122538 74 0 0.0 1.7 0.00 0.00 0.00 93 1015.9
20260510122037 74 0 0.0 1.7 0.00 0.00 0.00 93 1015.9
20260510121547 74 0 0.0 1.7 0.00 0.00 0.00 93 1015.7
20260510121037 74 0 0.0 0.0 0.00 0.00 0.00 93 1015.6
20260510120535 73 0 0.0 0.0 0.00 0.00 0.00 93 1015.5
20260510120046 73 0 0.0 0.9 0.00 0.00 0.00 93 1015.5
20260510115537 73 0 0.0 0.9 0.00 0.00 0.00 93 1015.5
20260510115034 72 0 0.0 0.9 0.00 0.00 0.00 93 1015.5
20260510114543 72 0 0.0 0.0 0.00 0.00 0.00 93 1015.3
20260510114036 72 0 0.0 0.0 0.00 0.00 0.00 92 1015.3
20260510113534 71 0 0.0 0.0 0.00 0.00 0.00 92 1015.2
20260510113059 71 0 0.0 0.0 0.00 0.00 0.00 92 1015.1
20260510112538 71 0 0.0 0.0 0.00 0.00 0.00 92 1015.1
20260510112038 71 0 0.0 0.0 0.00 0.00 0.00 92 1015.1
20260510111542 71 0 0.0 0.0 0.00 0.00 0.00 92 1015.0
20260510111037 71 0 0.0 0.0 0.00 0.00 0.00 92 1014.9
20260510110538 71 0 0.0 0.0 0.00 0.00 0.00 92 1014.8
20260510110052 71 0 0.0 0.0 0.00 0.00 0.00 92 1014.7
20260510105537 71 0 0.0 0.0 0.00 0.00 0.00 92 1014.7
20260510105039 71 0 0.0 0.0 0.00 0.00 0.00 92 1014.5
20260510104545 71 0 0.0 0.0 0.00 0.00 0.00 92 1014.4
20260510104037 71 0 0.0 0.0 0.00 0.00 0.00 92 1014.4
20260510103540 72 0 0.0 0.0 0.00 0.00 0.00 92 1014.3
20260510103057 72 0 0.0 0.0 0.00 0.00 0.00 92 1014.2
20260510102534 72 0 0.0 0.0 0.00 0.00 0.00 92 1014.1
20260510102037 72 0 0.0 0.0 0.00 0.00 0.00 92 1014.2
20260510101548 72 0 0.0 0.0 0.00 0.00 0.00 92 1014.1
20260510101036 72 0 0.0 0.0 0.00 0.00 0.00 92 1014.1
20260510100538 72 0 0.0 0.0 0.00 0.00 0.00 92 1014.1
20260510100050 72 0 0.0 0.0 0.00 0.00 0.00 92 1014.0
20260510095538 72 0 0.0 0.0 0.00 0.00 0.00 92 1013.9
20260510095038 72 0 0.0 0.0 0.00 0.00 0.00 92 1013.9
20260510094543 72 0 0.0 0.0 0.00 0.00 0.00 92 1013.8
20260510094035 72 0 0.0 0.0 0.00 0.00 0.00 92 1013.8
20260510093537 73 0 0.0 0.0 0.00 0.00 0.00 92 1013.7
20260510093051 73 0 0.0 0.0 0.00 0.00 0.00 92 1013.8
20260510092535 73 0 0.0 0.0 0.00 0.00 0.00 93 1013.8
20260510092036 73 0 0.0 0.0 0.00 0.00 0.00 93 1013.8
20260510091547 73 0 0.0 0.0 0.00 0.00 0.00 93 1013.7
20260510091035 73 0 0.0 0.0 0.00 0.00 0.00 93 1013.6
20260510090535 73 0 0.0 0.0 0.00 0.00 0.00 92 1013.5
20260510090049 73 0 0.0 0.0 0.00 0.00 0.00 92 1013.5
20260510085534 73 0 0.0 0.0 0.00 0.00 0.00 93 1013.4
20260510085037 72 0 0.0 0.0 0.00 0.00 0.00 92 1013.4
20260510084542 72 0 0.0 0.0 0.00 0.00 0.00 92 1013.4
20260510084038 72 0 0.0 0.0 0.00 0.00 0.00 92 1013.4
20260510083535 71 0 0.0 0.0 0.00 0.00 0.00 92 1013.5
20260510083042 72 0 0.0 0.0 0.00 0.00 0.00 92 1013.6
20260510082534 72 0 0.0 0.0 0.00 0.00 0.00 92 1013.6
20260510082036 72 0 0.0 0.0 0.00 0.00 0.00 92 1013.6
20260510081556 72 0 0.0 0.0 0.00 0.00 0.00 92 1013.6
20260510081034 72 0 0.0 0.0 0.00 0.00 0.00 92 1013.6
20260510080536 72 0 0.0 0.0 0.00 0.00 0.00 91 1013.6
20260510080048 72 0 0.0 0.0 0.00 0.00 0.00 92 1013.6
20260510075535 72 0 0.0 0.0 0.00 0.00 0.00 92 1013.5
20260510075035 71 0 0.0 0.0 0.00 0.00 0.00 91 1013.5
20260510074552 71 0 0.0 0.0 0.00 0.00 0.00 91 1013.7
20260510074037 71 0 0.0 0.0 0.00 0.00 0.00 91 1013.7
20260510073534 71 0 0.0 0.0 0.00 0.00 0.00 91 1013.9
20260510073044 71 0 0.0 0.0 0.00 0.00 0.00 91 1014.0
20260510072539 71 0 0.0 0.0 0.00 0.00 0.00 91 1014.0
20260510072038 71 0 0.0 0.0 0.00 0.00 0.00 91 1013.9
20260510071541 71 0 0.0 0.0 0.00 0.00 0.00 90 1013.9
20260510071037 71 0 0.0 0.0 0.00 0.00 0.00 90 1014.0
20260510070536 71 0 0.0 0.0 0.00 0.00 0.00 90 1014.0
20260510070046 71 0 0.0 0.0 0.00 0.00 0.00 91 1014.0
20260510065537 71 0 0.0 0.0 0.00 0.00 0.00 90 1014.1
20260510065035 72 0 0.0 0.0 0.00 0.00 0.00 90 1014.1
20260510064543 72 0 0.0 0.0 0.00 0.00 0.00 90 1014.1
20260510064034 72 0 0.0 0.0 0.00 0.00 0.00 90 1014.1
20260510063534 72 0 0.0 0.0 0.00 0.00 0.00 90 1014.3
20260510063042 72 0 0.0 0.0 0.00 0.00 0.00 90 1014.3
20260510062536 72 0 0.0 0.0 0.00 0.00 0.00 90 1014.2
20260510062036 72 0 0.0 0.0 0.00 0.00 0.00 90 1014.3
20260510061548 72 0 0.0 0.0 0.00 0.00 0.00 90 1014.3
20260510061041 72 0 0.0 0.0 0.00 0.00 0.00 90 1014.5
20260510060541 72 0 0.0 0.0 0.00 0.00 0.00 90 1014.4
20260510060047 72 0 0.0 0.0 0.00 0.00 0.00 90 1014.4
20260510055537 72 0 0.0 0.0 0.00 0.00 0.00 90 1014.4
20260510055036 72 0 0.0 0.0 0.00 0.00 0.00 90 1014.5
20260510054558 73 0 0.0 0.0 0.00 0.00 0.00 90 1014.6
20260510054038 73 0 0.0 0.0 0.00 0.00 0.00 90 1014.5
20260510053534 73 0 0.0 0.0 0.00 0.00 0.00 90 1014.6
20260510053048 73 0 0.0 0.0 0.00 0.00 0.00 90 1014.7
20260510052537 73 0 0.0 0.0 0.00 0.00 0.00 90 1014.9
20260510052038 74 0 0.0 0.0 0.00 0.00 0.00 91 1015.0
20260510051543 74 0 0.0 0.0 0.00 0.00 0.00 91 1015.0
20260510051035 73 0 0.0 0.0 0.00 0.00 0.00 90 1015.1
20260510050540 73 0 0.0 0.0 0.00 0.00 0.00 90 1015.2
20260510050051 73 0 0.0 0.0 0.00 0.00 0.00 89 1015.3
20260510045537 73 0 0.0 0.0 0.00 0.00 0.00 89 1015.4
20260510045038 73 0 0.0 0.0 0.00 0.00 0.00 89 1015.4
20260510044548 73 0 0.0 0.0 0.00 0.00 0.00 88 1015.4
20260510044038 73 0 0.0 0.0 0.00 0.00 0.00 89 1015.3
20260510043538 73 0 0.0 0.0 0.00 0.00 0.00 88 1015.4
20260510043041 73 0 0.0 0.0 0.00 0.00 0.00 88 1015.4
20260510042535 73 0 0.0 0.0 0.00 0.00 0.00 88 1015.3
20260510042037 73 0 0.0 0.0 0.00 0.00 0.00 88 1015.5
20260510041600 73 0 0.0 0.0 0.00 0.00 0.00 88 1015.3
20260510041036 74 0 0.0 0.0 0.00 0.00 0.00 88 1015.3
20260510040540 74 0 0.0 0.0 0.00 0.00 0.00 87 1015.3
20260510040049 74 0 0.0 0.0 0.00 0.00 0.00 87 1015.3
20260510035537 74 0 0.0 0.0 0.00 0.00 0.00 87 1015.2
20260510035037 74 0 0.0 0.0 0.00 0.00 0.00 87 1015.2
20260510034555 74 0 0.0 0.0 0.00 0.00 0.00 87 1015.2
20260510034039 74 0 0.0 0.0 0.00 0.00 0.00 88 1015.1
20260510033538 74 0 0.0 0.0 0.00 0.00 0.00 88 1015.1
20260510033055 75 0 0.0 0.0 0.00 0.00 0.00 88 1015.0
20260510032536 75 0 0.0 0.0 0.00 0.00 0.00 88 1015.0
20260510032037 75 0 0.0 0.0 0.00 0.00 0.00 88 1014.9
20260510031553 75 0 0.0 0.0 0.00 0.00 0.00 88 1014.9
20260510031037 75 0 0.0 0.0 0.00 0.00 0.00 88 1015.0
20260510030537 75 0 0.0 0.0 0.00 0.00 0.00 88 1015.0
20260510030050 75 0 0.0 0.0 0.00 0.00 0.00 88 1015.1
20260510025537 75 0 0.0 0.0 0.00 0.00 0.00 87 1015.1
20260510025036 75 0 0.0 0.0 0.00 0.00 0.00 87 1015.1
20260510024601 75 0 0.0 0.0 0.00 0.00 0.00 87 1015.0
20260510024036 75 0 0.0 0.0 0.00 0.00 0.00 87 1015.0
20260510023535 75 0 0.0 0.0 0.00 0.00 0.00 87 1015.0
20260510023055 75 0 0.0 0.0 0.00 0.00 0.00 87 1015.0
20260510022537 75 0 0.0 0.0 0.00 0.00 0.00 87 1015.0
20260510022038 75 0 0.0 0.0 0.00 0.00 0.00 87 1015.0
20260510021541 75 0 0.0 0.0 0.00 0.00 0.00 87 1015.0
20260510021038 75 0 0.0 0.0 0.00 0.00 0.00 87 1015.0
20260510020536 75 0 0.0 0.0 0.00 0.00 0.00 87 1015.0
20260510020046 75 0 0.0 0.0 0.00 0.00 0.00 87 1014.8
20260510015534 75 0 0.0 0.0 0.00 0.00 0.00 87 1014.7
20260510015038 75 0 0.0 0.0 0.00 0.00 0.00 87 1014.8
20260510014543 75 0 0.0 0.0 0.00 0.00 0.00 87 1014.7
20260510014036 75 0 0.0 0.0 0.00 0.00 0.00 87 1014.8
20260510013536 75 0 0.0 0.0 0.00 0.00 0.00 86 1014.7
20260510013058 75 0 0.0 0.0 0.00 0.00 0.00 86 1014.8
20260510012540 75 0 0.0 0.0 0.00 0.00 0.00 86 1014.7
20260510012035 75 0 0.0 0.0 0.00 0.00 0.00 86 1014.7
20260510011546 75 0 0.0 0.0 0.00 0.00 0.00 86 1014.5
20260510011036 75 0 0.0 0.0 0.00 0.00 0.00 86 1014.4
20260510010536 75 0 0.0 0.0 0.00 0.00 0.00 86 1014.3
20260510010042 75 0 0.0 0.0 0.00 0.00 0.00 86 1014.3
20260510005537 75 0 0.0 0.0 0.00 0.00 0.00 86 1014.2
20260510005037 75 0 0.0 0.0 0.00 0.00 0.00 86 1014.1
20260510004546 76 0 0.0 0.0 0.00 0.00 0.00 86 1014.1
20260510004034 76 0 0.0 0.0 0.00 0.00 0.00 86 1014.1
20260510003534 76 0 0.0 2.6 0.00 0.00 0.00 85 1013.8
20260510003039 76 0 0.0 2.6 0.00 0.00 0.00 85 1013.7
20260510002537 76 0 0.9 2.6 0.00 0.00 0.00 85 1013.8
20260510002034 76 52 0.0 2.6 0.00 0.00 0.00 86 1013.8
20260510001542 76 39 0.0 3.5 0.00 0.00 0.00 85 1013.7
20260510001037 76 0 0.0 4.3 0.00 0.00 0.00 85 1013.6
20260510000537 76 0 0.9 4.3 0.00 0.00 0.00 85 1013.7
20260510000042 76 46 0.9 3.5 0.00 0.00 0.00 85 1013.6
20260509235538 76 0 0.0 3.5 0.00 0.00 0.00 85 1013.5
20260509235041 76 35 0.9 6.1 0.00 0.00 0.00 85 1013.4
20260509234541 76 0 0.0 6.1 0.00 0.00 0.00 85 1013.3
20260509234038 76 29 1.7 4.3 0.00 0.00 0.00 84 1013.4
20260509233536 77 350 0.0 5.2 0.00 0.00 0.00 84 1013.3
20260509233050 77 52 0.9 5.2 0.00 0.00 0.00 84 1013.3
20260509232537 77 48 1.7 6.1 0.00 0.00 0.00 83 1013.2
20260509232036 77 338 1.7 7.0 0.00 0.00 0.00 83 1013.1
20260509231600 77 34 1.7 7.0 0.00 0.00 0.00 83 1013.1
20260509231034 77 17 2.6 7.0 0.00 0.00 0.00 83 1013.0
20260509230534 77 50 2.6 7.0 0.00 0.00 0.00 83 1013.1
20260509230045 78 65 1.7 7.8 0.00 0.00 0.00 83 1013.0
20260509225540 78 0 0.9 8.7 0.00 0.00 0.00 83 1012.9
20260509225037 78 66 3.5 8.7 0.00 0.00 0.00 82 1012.6
20260509224539 78 34 4.3 9.6 0.00 0.00 0.00 82 1012.7
20260509224037 78 75 2.6 13.0 0.00 0.00 0.00 82 1012.5
20260509223537 78 47 3.5 13.0 0.00 0.00 0.00 82 1012.5
20260509223044 78 54 4.3 10.4 0.00 0.00 0.00 81 1012.5
20260509222540 78 94 3.5 8.7 0.00 0.00 0.00 81 1012.5
20260509222037 79 41 4.3 8.7 0.00 0.00 0.00 82 1012.5
20260509221548 79 96 3.5 9.6 0.00 0.00 0.00 82 1012.4
20260509221034 79 44 2.6 9.6 0.00 0.00 0.00 81 1012.4